Погода в Трофимове

Россия / Нижегородская область     56°02′27″N   45°05′08″E
темп.,
°C
ветер,
м/с
пор.,
м/с
влажн.,
%
обл.,
%
осадки,
мм/ч
давл.,
гПа
погр.,
м
14 апреля, ср
ср1400:00+8ю357343 0.0 102851
03:00+7ю337251 0.0 102829
06:00+4ююв36875 0.0 102757
09:00+9ююв388216 0.0 1027160
12:00+14ююв47655 0.0 1025302
15:00+17юв48535 0.0 1024748
18:00+14юв36710 0.0 102296
21:00+11ююв34795 0.0 102245
15 апреля, чт
чт1500:00+10ю33835 0.0 102122
03:00+9ю22825 0.0 102112
06:00+8ю22845 0.0 102018
09:00+14ю236867 0.0 1020304
12:00+17ю2250100 0.0 1019951
15:00+18ю0141100 0.0 10181593
18:00+16св1152100 0.0 101811
21:00+11ссв4772100 0.0 1020181
16 апреля, пт
пт1600:00+8св5109078 0.0 1021400
03:00+6св6128759 0.0 1023432
06:00+5св6128579 0.0 1024505
09:00+8всв6107472 0.0 1025616
12:00+10всв6869100 0.0 1025938
15:00+11всв6865100 0.0 1025996
18:00+11всв596053 0.0 1025620
21:00+7св5126211 0.0 1027347
17 апреля, сб
сб1700:00+5св411665 0.0 1028305
03:00+3св4117226 0.0 1028269
06:00+2св311755 0.0 1029289
09:00+7всв69502 0.0 1030658
12:00+11всв67370 0.0 10291224
15:00+12всв56350 0.0 10281482
18:00+10всв47460 0.0 1028211
21:00+6св23590 0.0 102930
18 апреля, вс
вс1800:00+4св22680 0.0 102916
03:00+3св22760 0.0 103024
06:00+3св23805 0.0 103071
09:00+8св465696 0.0 1030593
12:00+11св464599 0.0 10291458
15:00+13св4642100 0.0 10291885
18:00+11всв5953100 0.0 1029461
21:00+7всв51070100 0.0 1031500